DELTA 1 DEB

Satellite information

Favourite Embed

Satellite Type and Status

DEBRISIN ORBIT

Key statistics

Satellite DELTA 1 DEB at a glance.

Uptime

17351

Days in orbit

Revolutions

≈ 14.2

Per day

Orbit

SSO

Sun Synchronous Orbit

Inclination

99.0

Latest

Satellite identification and parameters

Extended collection of information and parameters for DELTA 1 DEB.

Object identification

Identified? True

Debris? True

Object name: DELTA 1 DEB

International designator: 1978-026BJ

Object number (NORAD): 12217

Object ID (CCSDS): 12217

Country: UNITED STATES OF AMERICA (US)

Current information (Y/N): Y

RCS size: SMALL

Orbital parameters

Period: 101.144 minutes

Inclination: 98.9638 deg

SMA: 7190.952 km

Apoapsis: 826.744 km

Periapsis: 798.889 km

RAAN: 262.0619 deg

Eccentricy: 0.0019368

Argument of periapsis: 247.6754 deg

Mean anomaly: 172.4314 deg

Mean motion: 14.23715513 rev/day

Mean motion (dot): 0.00001253 rev/day2

B* drag term: 0.00056800441 1/REarth

Two-line elements (TLE)

Creation date: Sept. 4, 2025, 10:13 a.m.

Reference frame: TEME

Reference center: EARTH

Epoch: Sept. 4, 2025, 12:56 a.m. UTC

TLE line 0: 0 DELTA 1 DEB

TLE line 1: 1 12217U 78026BJ 25247.03956323 .00001253 00000-0 56800-3 0 9990

TLE line 2: 2 12217 98.9638 262.0619 0019368 247.6754 172.4314 14.23715513299673

Live tracking on map

Real-time ground track for satellite DELTA 1 DEB.

In-orbit conjunctions

A list of the most updated potential collisions computed for object DELTA 1 DEB.

Target Orbit TCA Probability of collision Miss distance Type
FENGYUN 1C DEB SSO 2025-05-24 08:40:14 0.0001104509 605.0 (m) DEBRIS
COSMOS 1275 DEB LEO 2025-01-27 09:05:44 0.000126392 120.0 (m) DEBRIS

Associated space launch

Earth observation satellite

DELTA 1 DEB was lifted into orbit during the mission ‘Delta 2910 | Landsat 3’, on board a Delta 2910 space rocket.

The launch took place on March 5, 1978, 5:54 p.m. from Space Launch Complex 2W.

For more information about the launch, click the button.

Launch to space Delta 2910 | Landsat 3
Delta 2910 | Landsat 3

Agency: N/A

Status: Launch Successful

Launch date: March 5, 1978, 5:54 p.m. UTC

Rocket: Delta 2910

Launch pad: Space Launch Complex 2W

Location: Vandenberg SFB, CA, USA

...

Latest news about this satellite

There are no fresh news available about this satellite. Check back as we update our databases every day.


Newsletter sign-up

Weekly statistics, charts and insights to help you stay on top of the space industry.